• In Denmark
  • List of Countries
  • For 7 days
  • Water Temperature
  • Satellite Maps
  • Weather Map
  • Weather Widgets
  • user-avatar
    Login

    Hourly Weather Brasília

    Today, 19 August, Sunday

    Time Temperature Precipitation Wind Pressure Humidity
    00:00 +19°C° 0.1 mm 2 mps 669 mmHg 70%
    01:00 +19°C° 0 mm 2 mps 669 mmHg 73%
    02:00 +18°C° 0 mm 2 mps 668 mmHg 75%
    03:00 +18°C° 0 mm 2 mps 668 mmHg 78%
    04:00 +17°C° 0 mm 2 mps 668 mmHg 79%
    05:00 +17°C° 0 mm 2 mps 668 mmHg 81%
    06:00 +17°C° 0 mm 2 mps 668 mmHg 82%
    07:00 +18°C° 0 mm 3 mps 669 mmHg 75%
    08:00 +20°C° 0 mm 3 mps 670 mmHg 69%
    09:00 +21°C° 0 mm 4 mps 670 mmHg 62%
    10:00 +23°C° 0 mm 4 mps 671 mmHg 56%
    11:00 +25°C° 0 mm 3 mps 671 mmHg 49%
    12:00 +27°C° 0 mm 3 mps 671 mmHg 43%
    13:00 +27°C° 0 mm 3 mps 671 mmHg 42%
    14:00 +27°C° 0 mm 2 mps 670 mmHg 41%
    15:00 +27°C° 0 mm 2 mps 669 mmHg 41%
    16:00 +26°C° 0 mm 2 mps 669 mmHg 43%
    17:00 +25°C° 0 mm 2 mps 669 mmHg 45%
    18:00 +25°C° 0 mm 2 mps 669 mmHg 47%
    19:00 +24°C° 0 mm 2 mps 669 mmHg 50%
    20:00 +23°C° 0 mm 2 mps 670 mmHg 53%
    21:00 +21°C° 0 mm 2 mps 670 mmHg 55%
    22:00 +21°C° 0.1 mm 2 mps 670 mmHg 58%
    23:00 +20°C° 0.1 mm 2 mps 670 mmHg 61%

    Tomorrow, 20 August, Monday

    Time Temperature Precipitation Wind Pressure Humidity
    00:00 +20°C° 0.1 mm 2 mps 670 mmHg 63%
    01:00 +19°C° 0 mm 2 mps 670 mmHg 65%
    02:00 +19°C° 0 mm 2 mps 669 mmHg 66%
    03:00 +19°C° 0 mm 2 mps 669 mmHg 68%
    04:00 +18°C° 0 mm 2 mps 669 mmHg 70%
    05:00 +17°C° 0 mm 2 mps 669 mmHg 73%
    06:00 +17°C° 0 mm 2 mps 669 mmHg 75%
    07:00 +18°C° 0 mm 3 mps 670 mmHg 69%
    08:00 +20°C° 0 mm 4 mps 670 mmHg 63%
    09:00 +21°C° 0 mm 4 mps 671 mmHg 56%
    10:00 +23°C° 0 mm 4 mps 671 mmHg 49%
    11:00 +26°C° 0 mm 4 mps 672 mmHg 42%
    12:00 +27°C° 0 mm 4 mps 672 mmHg 35%
    13:00 +28°C° 0 mm 4 mps 671 mmHg 33%
    14:00 +28°C° 0 mm 3 mps 670 mmHg 31%
    15:00 +29°C° 0 mm 3 mps 669 mmHg 29%
    16:00 +28°C° 0 mm 3 mps 669 mmHg 31%
    17:00 +26°C° 0 mm 2 mps 669 mmHg 33%
    18:00 +25°C° 0 mm 2 mps 669 mmHg 35%
    19:00 +24°C° 0 mm 2 mps 669 mmHg 37%
    20:00 +24°C° 0 mm 2 mps 669 mmHg 39%
    21:00 +23°C° 0 mm 2 mps 670 mmHg 41%
    22:00 +21°C° 0 mm 2 mps 670 mmHg 42%
    23:00 +20°C° 0 mm 2 mps 670 mmHg 44%

    Day after tomorrow, 21 August, Tuesday

    Time Temperature Precipitation Wind Pressure Humidity
    00:00 +20°C° 0 mm 2 mps 670 mmHg 45%
    01:00 +19°C° 0 mm 2 mps 669 mmHg 47%
    02:00 +19°C° 0 mm 2 mps 669 mmHg 49%
    03:00 +19°C° 0 mm 2 mps 668 mmHg 51%
    04:00 +18°C° 0 mm 3 mps 668 mmHg 55%
    05:00 +18°C° 0 mm 3 mps 668 mmHg 58%
    06:00 +18°C° 0 mm 3 mps 669 mmHg 61%
    07:00 +19°C° 0 mm 4 mps 669 mmHg 58%
    08:00 +20°C° 0 mm 4 mps 670 mmHg 54%
    09:00 +22°C° 0 mm 5 mps 671 mmHg 51%
    10:00 +23°C° 0 mm 5 mps 671 mmHg 46%
    11:00 +26°C° 0 mm 4 mps 671 mmHg 40%
    12:00 +28°C° 0 mm 4 mps 671 mmHg 34%
    13:00 +28°C° 0 mm 4 mps 670 mmHg 33%
    14:00 +28°C° 0 mm 3 mps 670 mmHg 32%
    15:00 +28°C° 0 mm 2 mps 669 mmHg 30%
    16:00 +27°C° 0 mm 2 mps 669 mmHg 32%
    17:00 +26°C° 0 mm 2 mps 669 mmHg 34%
    18:00 +25°C° 0 mm 1 mps 668 mmHg 36%
    19:00 +24°C° 0 mm 2 mps 669 mmHg 38%
    20:00 +24°C° 0 mm 2 mps 669 mmHg 39%
    21:00 +23°C° 0 mm 2 mps 669 mmHg 41%
    22:00 +21°C° 0 mm 2 mps 669 mmHg 42%
    23:00 +21°C° 0 mm 2 mps 669 mmHg 42%

    22 August, Wednesday

    Time Temperature Precipitation Wind Pressure Humidity
    00:00 +20°C° 0 mm 2 mps 669 mmHg 43%
    01:00 +20°C° 0 mm 3 mps 669 mmHg 45%
    02:00 +20°C° 0 mm 3 mps 669 mmHg 47%
    03:00 +19°C° 0 mm 3 mps 668 mmHg 49%
    04:00 +19°C° 0 mm 3 mps 668 mmHg 54%
    05:00 +18°C° 0 mm 3 mps 669 mmHg 60%
    06:00 +18°C° 0 mm 3 mps 669 mmHg 66%
    07:00 +19°C° 0 mm 4 mps 669 mmHg 62%
    08:00 +21°C° 0 mm 4 mps 670 mmHg 58%
    09:00 +22°C° 0 mm 5 mps 671 mmHg 54%
    10:00 +25°C° 0 mm 4 mps 671 mmHg 47%
    11:00 +26°C° 0 mm 4 mps 671 mmHg 41%
    12:00 +28°C° 0 mm 4 mps 671 mmHg 34%
    13:00 +28°C° 0 mm 3 mps 670 mmHg 33%
    14:00 +28°C° 0 mm 3 mps 669 mmHg 33%
    15:00 +28°C° 0 mm 2 mps 668 mmHg 32%
    16:00 +27°C° 0 mm 2 mps 668 mmHg 33%
    17:00 +26°C° 0 mm 2 mps 668 mmHg 35%
    18:00 +25°C° 0 mm 2 mps 668 mmHg 37%
    19:00 +25°C° 0 mm 2 mps 668 mmHg 39%
    20:00 +24°C° 0 mm 2 mps 669 mmHg 41%
    21:00 +22°C° 0 mm 3 mps 669 mmHg 42%
    22:00 +23°C° 0 mm 2 mps 669 mmHg 46%
    23:00 +21°C° 0 mm 2 mps 668 mmHg 49%

    23 August, Thursday

    Time Temperature Precipitation Wind Pressure Humidity
    00:00 +20°C° 0 mm 2 mps 668 mmHg 53%
    01:00 +20°C° 0 mm 3 mps 668 mmHg 55%
    02:00 +19°C° 0 mm 3 mps 667 mmHg 56%
    03:00 +19°C° 0 mm 3 mps 667 mmHg 58%
    04:00 +19°C° 0 mm 3 mps 667 mmHg 60%
    05:00 +18°C° 0 mm 3 mps 667 mmHg 63%
    06:00 +18°C° 0 mm 4 mps 667 mmHg 65%
    07:00 +19°C° 0 mm 4 mps 668 mmHg 62%
    08:00 +20°C° 0 mm 4 mps 669 mmHg 59%
    09:00 +22°C° 0 mm 5 mps 669 mmHg 56%
    10:00 +23°C° 0 mm 5 mps 669 mmHg 50%
    11:00 +26°C° 0 mm 4 mps 670 mmHg 44%
    12:00 +28°C° 0 mm 4 mps 670 mmHg 37%
    13:00 +28°C° 0 mm 4 mps 669 mmHg 37%
    14:00 +28°C° 0 mm 4 mps 668 mmHg 36%
    15:00 +28°C° 0 mm 4 mps 668 mmHg 35%
    16:00 +27°C° 0 mm 3 mps 667 mmHg 37%
    17:00 +26°C° 0 mm 3 mps 667 mmHg 40%
    18:00 +25°C° 0 mm 3 mps 667 mmHg 43%
    19:00 +24°C° 0 mm 3 mps 667 mmHg 45%
    20:00 +23°C° 0 mm 2 mps 668 mmHg 47%
    21:00 +21°C° 0 mm 2 mps 668 mmHg 49%
    22:00 +21°C° 0 mm 2 mps 668 mmHg 49%
    23:00 +21°C° 0 mm 2 mps 668 mmHg 49%

    24 August, Friday

    Time Temperature Precipitation Wind Pressure Humidity
    00:00 +20°C° 0 mm 2 mps 668 mmHg 50%
    01:00 +20°C° 0 mm 3 mps 667 mmHg 51%
    02:00 +19°C° 0 mm 3 mps 667 mmHg 52%
    03:00 +19°C° 0 mm 3 mps 667 mmHg 53%
    04:00 +19°C° 0 mm 4 mps 667 mmHg 57%
    05:00 +18°C° 0 mm 4 mps 667 mmHg 61%
    06:00 +18°C° 0 mm 4 mps 667 mmHg 65%
    07:00 +19°C° 0 mm 5 mps 668 mmHg 62%
    08:00 +20°C° 0 mm 5 mps 669 mmHg 60%
    09:00 +21°C° 0 mm 5 mps 669 mmHg 57%
    10:00 +23°C° 0 mm 5 mps 669 mmHg 50%
    11:00 +26°C° 0 mm 5 mps 670 mmHg 44%
    12:00 +28°C° 0 mm 5 mps 670 mmHg 38%
    13:00 +28°C° 0 mm 4 mps 669 mmHg 36%
    14:00 +28°C° 0 mm 4 mps 668 mmHg 34%
    15:00 +29°C° 0 mm 3 mps 668 mmHg 33%
    16:00 +28°C° 0 mm 3 mps 668 mmHg 34%
    17:00 +27°C° 0 mm 3 mps 668 mmHg 36%
    18:00 +26°C° 0 mm 2 mps 668 mmHg 38%
    19:00 +25°C° 0 mm 2 mps 668 mmHg 40%
    20:00 +24°C° 0 mm 2 mps 668 mmHg 42%
    21:00 +23°C° 0 mm 2 mps 668 mmHg 44%
    22:00 +21°C° 0 mm 2 mps 668 mmHg 45%
    23:00 +21°C° 0 mm 3 mps 668 mmHg 46%
    Show more